Total_Precipitation_Accumulation
2.46 2.32 4.03 4.37 3.93 3.58 3.44 3.42 3.34 3.35 3.44 3.53 3.31 3.01 2.89 2.84 2.68 2.51 2.30 2.26 2.32 2.41 2.43 2.35 2.47 2.42 2.22 2.09 2.01 2.08 2.25 2.39 2.49 2.45 2.59 2.88 2.93 3.28 3.72 3.87 3.82 3.95 3.63
2.01 2.19 3.80 4.07 3.60 3.23 3.16 3.28 3.37 3.44 3.56 3.50 3.30 3.04 2.91 2.84 2.61 2.44 2.20 2.15 2.24 2.20 2.04 2.11 2.23 2.19 2.19 2.30 2.38 2.46 2.47 2.43 2.48 2.61 2.83 3.08 3.10 3.24 3.54 3.87 3.80 4.09 3.92
1.88 1.98 2.93 3.75 3.41 3.05 3.00 3.21 3.56 3.42 3.55 3.41 3.21 2.98 2.79 2.62 2.52 2.50 2.28 2.24 2.33 2.13 1.93 1.98 2.17 2.13 2.08 2.15 2.24 2.43 2.44 2.50 2.64 2.89 3.32 4.00 3.30 3.10 3.37 3.64 3.67 3.61 3.75
1.68 1.77 2.44 3.57 3.26 3.13 3.17 3.36 3.49 3.46 3.60 3.34 3.13 2.87 2.69 2.61 2.75 2.81 2.84 2.78 2.57 2.28 2.07 1.99 2.14 2.05 1.86 1.95 2.16 2.22 2.19 2.36 2.59 2.83 3.17 3.73 3.57 3.15 3.43 3.81 3.68 3.32 3.52
1.57 1.70 2.68 3.59 3.31 3.18 3.21 3.34 3.45 3.59 3.64 3.33 3.00 2.71 2.54 2.61 3.03 3.22 3.15 2.93 2.58 2.33 2.09 1.96 1.99 2.01 1.86 1.79 1.94 1.97 2.03 2.18 2.39 2.24 2.64 3.51 3.99 3.72 3.27 3.55 3.64 3.36 3.34
1.76 1.78 2.66 3.57 3.48 3.31 3.22 3.31 3.47 3.53 3.58 3.47 3.10 2.73 2.64 2.68 2.74 2.79 2.87 2.75 2.48 2.28 2.08 2.03 1.96 1.92 1.91 1.83 1.83 1.90 1.98 2.07 1.89 2.03 2.62 3.21 3.75 3.58 3.05 3.07 3.37 3.35 3.33
1.70 1.79 2.36 3.27 3.32 3.20 3.18 3.44 3.62 3.46 3.39 3.34 3.14 2.79 2.71 2.69 2.67 2.77 2.80 2.70 2.40 2.26 2.06 2.04 1.97 1.89 1.80 1.80 1.80 1.79 1.87 1.65 1.44 1.92 2.51 3.05 3.32 3.35 3.17 3.22 3.38 3.28 3.44
1.68 1.69 2.16 2.94 3.19 3.12 3.23 3.47 3.53 3.44 3.31 3.09 2.80 2.62 2.60 2.72 2.72 2.79 2.79 2.63 2.34 2.24 2.09 1.92 1.87 1.80 1.76 1.77 1.78 1.78 1.75 1.32 1.09 1.53 2.18 2.94 3.50 3.53 3.30 3.20 3.32 3.35 3.52
1.90 1.91 2.26 2.69 2.89 3.32 3.51 3.46 3.44 3.44 3.28 2.97 2.61 2.54 2.58 2.71 2.62 2.64 2.69 2.55 2.27 2.15 1.95 1.76 1.67 1.64 1.71 1.76 1.75 1.73 1.61 1.27 1.14 1.52 1.64 2.51 3.33 3.47 3.19 3.15 3.24 3.39 3.63
2.00 2.01 2.15 2.38 2.46 2.79 3.13 3.45 3.51 3.37 3.24 3.02 2.61 2.49 2.56 2.68 2.70 2.64 2.41 2.40 2.31 2.17 2.01 1.79 1.69 1.67 1.75 1.80 1.77 1.65 1.50 1.20 1.15 1.30 1.77 2.42 3.42 3.58 3.27 3.22 3.28 3.37 3.49
1.87 1.81 1.94 2.10 2.20 2.44 2.76 3.06 3.31 3.16 3.04 2.81 2.47 2.37 2.34 2.27 2.11 2.20 2.13 2.53 2.37 2.18 2.04 1.97 1.91 1.83 1.76 1.69 1.68 1.46 1.15 1.10 1.31 1.50 2.04 3.02 3.86 3.95 3.68 3.45 3.45 3.42 3.34
1.88 1.76 1.77 1.92 2.00 2.09 2.28 2.88 2.94 2.45 2.24 2.02 2.15 2.11 2.05 2.06 1.92 1.60 1.85 2.34 2.40 2.28 2.03 1.93 1.95 1.70 1.35 1.21 1.26 1.11 0.95 1.06 1.26 1.48 2.09 3.41 4.03 4.07 3.70 3.41 3.51 3.53 3.35
1.65 1.59 1.61 1.74 1.68 1.65 1.89 2.26 2.47 2.41 2.28 2.01 1.85 1.81 1.92 1.89 1.71 1.51 1.66 1.83 1.79 1.70 1.54 1.52 1.41 1.18 1.07 1.13 1.13 0.96 0.91 1.06 1.24 1.44 2.22 3.54 4.24 4.19 3.68 3.41 3.41 3.32 3.20
1.46 1.41 1.47 1.49 1.43 1.38 1.49 1.63 1.71 1.90 1.93 1.84 1.60 1.41 1.51 1.68 1.62 1.42 1.44 1.50 1.52 1.50 1.56 1.51 1.41 1.27 1.17 1.16 1.11 1.11 1.12 1.24 1.31 1.51 2.34 3.45 4.48 4.56 4.27 4.00 3.68 3.48 3.29
1.43 1.40 1.43 1.38 1.34 1.32 1.41 1.50 1.41 1.59 1.70 1.69 1.62 1.39 1.31 1.37 1.42 1.36 1.22 1.34 1.40 1.42 1.39 1.37 1.32 1.32 1.38 1.34 1.27 1.27 1.30 1.32 1.34 1.44 1.91 2.76 4.00 4.82 4.98 4.82 4.13 3.71 3.46
1.26 1.36 1.40 1.48 1.49 1.34 1.28 1.33 1.32 1.35 1.47 1.44 1.48 1.41 1.35 1.32 1.32 1.33 1.28 1.36 1.44 1.47 1.41 1.34 1.27 1.36 1.41 1.43 1.38 1.29 1.26 1.18 1.25 1.43 1.74 2.05 2.49 3.29 4.38 4.79 4.44 4.09 3.84
1.16 1.17 1.21 1.35 1.42 1.30 1.29 1.31 1.28 1.36 1.42 1.42 1.38 1.28 1.36 1.32 1.29 1.31 1.34 1.38 1.40 1.48 1.52 1.51 1.44 1.45 1.47 1.57 1.58 1.38 1.29 1.23 1.22 1.37 1.60 1.82 1.74 1.99 2.98 3.99 4.39 4.16 3.98
1.06 1.05 1.08 1.03 1.16 1.26 1.34 1.41 1.46 1.49 1.50 1.49 1.37 1.27 1.24 1.22 1.23 1.30 1.33 1.37 1.44 1.43 1.50 1.62 1.64 1.66 1.65 1.71 1.71 1.48 1.31 1.40 1.29 1.33 1.56 1.64 1.68 1.71 2.07 2.58 3.08 3.49 3.89
1.07 1.09 1.14 1.12 1.16 1.28 1.35 1.48 1.55 1.63 1.70 1.76 1.64 1.62 1.52 1.38 1.39 1.48 1.54 1.53 1.54 1.59 1.62 1.55 1.60 1.73 1.82 1.80 1.64 1.55 1.45 1.47 1.45 1.44 1.65 1.69 1.72 1.75 1.86 1.87 2.07 2.49 3.19
1.18 1.19 1.22 1.34 1.39 1.51 1.67 1.91 2.11 2.19 2.27 2.35 2.29 2.17 1.99 1.73 1.66 1.81 1.84 1.71 1.75 1.87 1.98 1.88 1.95 1.86 1.77 1.84 1.63 1.59 1.59 1.54 1.50 1.59 1.66 1.76 1.92 1.82 1.83 1.81 1.88 1.85 2.24
1.24 1.21 1.20 1.34 1.46 1.55 1.76 2.06 2.55 2.79 2.83 2.68 2.65 2.56 2.34 2.09 2.04 2.19 2.19 2.17 2.16 2.18 2.16 2.12 2.34 2.25 1.96 1.86 2.08 2.07 1.87 1.68 1.60 1.58 1.63 1.88 2.02 1.98 2.10 2.05 1.94 1.82 1.71
1.09 1.13 1.30 1.43 1.52 1.60 1.81 2.10 2.44 2.86 2.93 2.83 2.69 2.60 2.49 2.34 2.28 2.29 2.50 2.59 2.54 2.74 2.76 2.54 2.67 2.70 2.32 2.07 2.40 2.78 2.51 2.25 1.75 1.62 1.76 1.84 1.96 2.11 2.23 2.09 1.91 1.82 1.76
1.04 1.01 1.13 1.36 1.58 1.86 2.10 2.38 2.53 2.79 2.88 2.85 2.69 2.61 2.64 2.54 2.41 2.48 2.57 2.72 2.71 2.79 3.00 3.13 3.05 3.15 2.92 2.47 2.34 2.75 2.73 2.59 2.33 1.93 1.85 1.92 2.06 2.15 2.25 2.25 2.08 1.87 1.79
0.96 0.94 1.03 1.19 1.47 1.90 2.21 2.39 2.60 2.94 3.03 2.88 2.78 2.67 2.68 2.69 2.67 2.79 2.76 2.80 2.81 2.81 2.92 3.10 3.10 3.31 3.43 3.00 2.63 2.36 2.20 2.23 2.45 2.31 2.01 1.95 2.11 2.10 2.12 2.15 2.23 2.13 1.94
0.99 1.00 1.06 1.29 1.58 1.93 2.10 2.32 2.63 2.79 2.90 2.98 2.85 2.76 2.73 2.77 2.79 2.87 2.91 3.01 2.97 2.93 2.84 3.05 3.17 3.31 3.27 3.22 3.09 2.90 2.73 2.47 2.12 2.28 2.32 2.15 2.04 1.93 1.99 2.11 2.28 2.33 2.20
1.04 1.12 1.24 1.42 1.65 1.92 2.10 2.33 2.44 2.59 2.76 2.81 2.84 2.76 2.72 2.75 2.84 2.72 2.66 2.83 2.88 2.88 2.81 2.94 3.08 3.25 3.26 3.30 3.24 2.96 2.98 2.89 2.53 2.49 2.31 2.15 2.21 2.03 1.96 2.02 2.06 2.08 2.19